TimeEST,TemperatureF,Dew PointF,Humidity,Sea Level PressureIn,VisibilityMPH,Wind Direction,Wind SpeedMPH,Gust SpeedMPH,PrecipitationIn,Events,Conditions,WindDirDegrees,DateUTC
12:06 AM,42.8,41.0,93,30.06,5.0,Calm,Calm,-,0.00,Rain,Light Rain,0,2013-02-22 05:06:00
12:53 AM,42.1,42.1,100,30.04,3.0,NNW,5.8,-,0.06,Rain,Light Rain,330,2013-02-22 05:53:00
1:51 AM,42.8,42.8,100,30.02,2.5,Calm,Calm,-,0.06,Rain,Rain,0,2013-02-22 06:51:00
1:53 AM,43.0,43.0,100,30.02,2.5,Calm,Calm,-,0.06,Rain,Rain,0,2013-02-22 06:53:00
2:06 AM,42.8,42.8,100,30.02,1.5,West,3.5,-,0.08,Rain,Heavy Rain,280,2013-02-22 07:06:00
2:15 AM,42.8,42.8,100,30.01,2.0,Calm,Calm,-,0.11,Rain,Rain,0,2013-02-22 07:15:00
2:29 AM,42.8,42.8,100,30.02,3.0,Calm,Calm,-,N/A,Rain,Light Rain,0,2013-02-22 07:29:00
2:53 AM,46.0,45.0,96,30.02,4.0,SSW,9.2,-,0.15,Rain,Rain,200,2013-02-22 07:53:00
3:41 AM,46.4,46.4,100,30.02,9.0,SSW,9.2,-,0.08,Rain,Light Rain,200,2013-02-22 08:41:00
3:53 AM,46.9,45.0,93,30.01,9.0,South,8.1,-,0.09,Rain,Light Rain,170,2013-02-22 08:53:00
4:38 AM,46.4,44.6,93,30.02,10.0,South,6.9,-,0.00,,Overcast,180,2013-02-22 09:38:00
4:53 AM,46.9,44.1,90,30.02,10.0,South,8.1,-,0.00,,Overcast,190,2013-02-22 09:53:00
5:00 AM,46.4,44.6,93,30.02,10.0,South,6.9,-,N/A,,Overcast,180,2013-02-22 10:00:00
5:53 AM,46.9,44.1,90,30.04,7.0,South,9.2,-,0.00,,Overcast,190,2013-02-22 10:53:00
6:53 AM,46.0,44.1,93,30.04,7.0,South,10.4,-,0.00,Rain,Light Rain,190,2013-02-22 11:53:00
7:53 AM,46.0,44.1,93,30.06,7.0,SSW,10.4,-,0.00,,Overcast,200,2013-02-22 12:53:00
8:53 AM,46.9,44.1,90,30.09,7.0,SSW,9.2,-,N/A,,Overcast,200,2013-02-22 13:53:00
9:53 AM,46.9,42.1,83,30.09,10.0,South,11.5,17.3,N/A,,Overcast,180,2013-02-22 14:53:00
10:53 AM,48.0,42.1,80,30.10,10.0,South,8.1,-,N/A,,Overcast,180,2013-02-22 15:53:00
11:53 AM,48.9,43.0,80,30.11,10.0,South,12.7,-,N/A,,Overcast,180,2013-02-22 16:53:00
12:53 PM,48.0,42.1,80,30.10,10.0,South,13.8,23.0,N/A,,Overcast,180,2013-02-22 17:53:00
1:53 PM,48.0,43.0,83,30.10,10.0,SSW,8.1,-,N/A,,Overcast,200,2013-02-22 18:53:00
2:53 PM,48.9,43.0,80,30.08,10.0,South,6.9,-,N/A,,Overcast,180,2013-02-22 19:53:00
3:53 PM,48.9,43.0,80,30.05,10.0,SSW,4.6,-,N/A,,Overcast,210,2013-02-22 20:53:00
4:46 PM,48.2,42.8,82,30.04,10.0,South,6.9,-,N/A,,Overcast,170,2013-02-22 21:46:00
4:53 PM,48.0,43.0,83,30.04,10.0,SSW,6.9,-,N/A,,Overcast,200,2013-02-22 21:53:00
5:53 PM,46.9,43.0,86,30.06,10.0,SW,8.1,-,N/A,,Overcast,230,2013-02-22 22:53:00
6:53 PM,46.9,44.1,90,30.07,6.0,SSW,8.1,-,N/A,,Overcast,200,2013-02-22 23:53:00
7:03 PM,46.4,44.6,93,30.07,6.0,SSW,8.1,-,N/A,,Overcast,210,2013-02-23 00:03:00
7:53 PM,46.0,44.1,93,30.06,5.0,South,5.8,-,N/A,,Overcast,190,2013-02-23 00:53:00
8:53 PM,45.0,45.0,100,30.03,2.0,SSW,4.6,-,N/A,,Overcast,210,2013-02-23 01:53:00
9:33 PM,44.6,44.6,100,30.06,3.0,SSW,6.9,-,N/A,,Overcast,210,2013-02-23 02:33:00
9:53 PM,45.0,45.0,100,30.09,2.0,SW,6.9,-,N/A,,Overcast,230,2013-02-23 02:53:00
10:06 PM,44.6,44.6,100,30.08,1.8,SW,3.5,-,0.00,,Drizzle,220,2013-02-23 03:06:00
10:32 PM,44.6,44.6,100,30.08,2.5,South,5.8,-,0.00,,Light Drizzle,180,2013-02-23 03:32:00
10:53 PM,45.0,44.1,97,30.08,2.0,South,6.9,-,0.00,,Light Drizzle,190,2013-02-23 03:53:00
11:24 PM,44.6,44.6,100,30.05,5.0,SSW,4.6,-,0.01,,Overcast,200,2013-02-23 04:24:00
11:53 PM,45.0,44.1,97,30.05,7.0,SSW,6.9,-,0.01,,Overcast,210,2013-02-23 04:53:00